FW6650 Weather Reports


Display with metric or nautical units.
time (UTC)temp
F
wind
direction
speed
MPH
gust
MPH
rain 1hr
in
rain 24hr
in
rain mn
in
humidity
%
barometer
mb
20260905091546 85 333 10.0 22.0 0.00 0.00 0.00 36 1016.1
20260905091027 85 58 8.0 23.0 0.00 0.00 0.00 37 1016.2
20260905090526 84 30 12.0 23.0 0.00 0.00 0.00 37 1016.2
20260905090047 84 317 11.0 23.0 0.00 0.00 0.00 36 1016.1
20260905085524 84 42 11.0 25.0 0.00 0.00 0.00 37 1016.1
20260905085030 85 344 12.0 25.0 0.00 0.00 0.00 36 1016.1
20260905084546 84 340 13.0 24.0 0.00 0.00 0.00 35 1016.1
20260905084027 84 341 10.0 23.0 0.00 0.00 0.00 35 1016.2
20260905083526 84 55 13.0 25.0 0.00 0.00 0.00 35 1016.2
20260905083041 84 342 11.0 25.0 0.00 0.00 0.00 36 1016.1
20260905082526 84 309 13.0 22.0 0.00 0.00 0.00 37 1016.2
20260905082026 84 327 14.0 22.0 0.00 0.00 0.00 38 1016.1
20260905081559 84 360 9.0 21.0 0.00 0.00 0.00 38 1016.1
20260905081026 83 9 9.0 25.0 0.00 0.00 0.00 39 1016.2
20260905080526 83 19 9.0 25.0 0.00 0.00 0.00 39 1016.1
20260905080056 83 5 10.0 24.0 0.00 0.00 0.00 39 1016.1
20260905075527 83 360 9.0 21.0 0.00 0.00 0.00 39 1016.1
20260905075029 83 360 8.0 18.0 0.00 0.00 0.00 39 1016.2
20260905074544 83 340 7.0 16.0 0.00 0.00 0.00 40 1016.1
20260905074026 83 38 5.0 17.0 0.00 0.00 0.00 40 1016.2
20260905073526 82 342 9.0 18.0 0.00 0.00 0.00 40 1016.2
20260905073048 82 360 9.0 18.0 0.00 0.00 0.00 40 1016.0
20260905072527 82 19 8.0 18.0 0.00 0.00 0.00 40 1015.9
20260905072028 82 24 6.0 15.0 0.00 0.00 0.00 41 1015.9
20260905071557 81 24 8.0 15.0 0.00 0.00 0.00 43 1015.9
20260905071025 81 15 7.0 20.0 0.00 0.00 0.00 42 1015.9
20260905070530 81 5 8.0 20.0 0.00 0.00 0.00 43 1015.9
20260905070051 81 10 11.0 20.0 0.00 0.00 0.00 44 1016.0
20260905065526 80 19 9.0 15.0 0.00 0.00 0.00 44 1016.0
20260905065029 80 36 4.0 10.0 0.00 0.00 0.00 46 1016.2
20260905064552 80 342 3.0 11.0 0.00 0.00 0.00 46 1016.1
20260905064027 80 78 3.0 11.0 0.00 0.00 0.00 47 1016.1
20260905063526 80 339 3.0 16.0 0.00 0.00 0.00 46 1016.1
20260905063044 79 64 5.0 16.0 0.00 0.00 0.00 47 1016.1
20260905062528 79 311 9.0 19.0 0.00 0.00 0.00 46 1016.0
20260905062027 79 13 8.0 19.0 0.00 0.00 0.00 47 1016.0
20260905061604 79 355 10.0 19.0 0.00 0.00 0.00 48 1015.9
20260905061027 79 17 9.0 14.0 0.00 0.00 0.00 48 1015.9
20260905060527 79 9 8.0 19.0 0.00 0.00 0.00 48 1015.8
20260905060053 79 336 10.0 19.0 0.00 0.00 0.00 48 1015.7
20260905055525 78 17 9.0 16.0 0.00 0.00 0.00 49 1015.7
20260905055026 78 360 8.0 16.0 0.00 0.00 0.00 49 1015.7
20260905054550 78 360 7.0 14.0 0.00 0.00 0.00 50 1015.7
20260905054026 78 360 7.0 15.0 0.00 0.00 0.00 50 1015.7
20260905053527 78 360 6.0 15.0 0.00 0.00 0.00 50 1015.7
20260905053050 77 351 9.0 15.0 0.00 0.00 0.00 50 1015.6
20260905052526 77 351 10.0 15.0 0.00 0.00 0.00 51 1015.7
20260905052026 77 338 9.0 13.0 0.00 0.00 0.00 51 1015.7
20260905051543 77 338 7.0 13.0 0.00 0.00 0.00 52 1015.6
20260905051026 77 40 5.0 12.0 0.00 0.00 0.00 52 1015.7
20260905050529 77 5 5.0 14.0 0.00 0.00 0.00 52 1015.7
20260905050044 76 350 4.0 14.0 0.00 0.00 0.00 52 1015.7
20260905045526 76 5 5.0 12.0 0.00 0.00 0.00 52 1015.6
20260905045026 76 360 3.0 6.0 0.00 0.00 0.00 53 1015.7
20260905044549 76 360 4.0 6.0 0.00 0.00 0.00 52 1015.6
20260905044023 76 360 2.0 6.0 0.00 0.00 0.00 52 1015.6
20260905043530 76 360 2.0 6.0 0.00 0.00 0.00 53 1015.5
20260905043108 76 360 2.0 6.0 0.00 0.00 0.00 53 1015.5
20260905042529 76 360 3.0 7.0 0.00 0.00 0.00 53 1015.5
20260905042026 76 39 3.0 10.0 0.00 0.00 0.00 54 1015.3
20260905041540 76 11 3.0 10.0 0.00 0.00 0.00 54 1015.2
20260905041027 76 11 4.0 10.0 0.00 0.00 0.00 54 1015.1
20260905040529 76 20 4.0 13.0 0.00 0.00 0.00 54 1015.1
20260905040111 76 17 6.0 13.0 0.00 0.00 0.00 54 1015.0
20260905035526 76 30 5.0 11.0 0.00 0.00 0.00 54 1015.0
20260905035026 76 11 5.0 12.0 0.00 0.00 0.00 54 1015.0
20260905034540 76 360 7.0 13.0 0.00 0.00 0.00 54 1014.9
20260905034027 76 348 6.0 13.0 0.00 0.00 0.00 55 1014.9
20260905033526 76 360 7.0 13.0 0.00 0.00 0.00 55 1014.8
20260905033042 76 17 7.0 13.0 0.00 0.00 0.00 55 1014.9
20260905032531 76 23 8.0 13.0 0.00 0.00 0.00 55 1014.8
20260905032026 76 342 4.0 8.0 0.00 0.00 0.00 55 1014.9
20260905031541 76 348 3.0 6.0 0.00 0.00 0.00 56 1015.0
20260905031025 76 360 3.0 8.0 0.00 0.00 0.00 56 1015.0
20260905030528 75 53 4.0 8.0 0.00 0.00 0.00 56 1014.9
20260905030045 75 28 3.0 8.0 0.00 0.00 0.00 57 1014.9
20260905025526 75 28 4.0 10.0 0.00 0.00 0.00 57 1015.0
20260905025026 75 27 3.0 10.0 0.00 0.00 0.00 57 1014.9
20260905024543 75 360 5.0 10.0 0.00 0.00 0.00 58 1014.9
20260905024030 75 344 5.0 8.0 0.00 0.00 0.00 58 1014.9
20260905023526 75 342 3.0 8.0 0.00 0.00 0.00 58 1014.9
20260905023044 76 11 4.0 8.0 0.00 0.00 0.00 58 1015.0
20260905022530 76 11 4.0 9.0 0.00 0.00 0.00 57 1014.9
20260905022026 76 349 5.0 9.0 0.00 0.00 0.00 57 1015.0
20260905021551 76 342 3.0 6.0 0.00 0.00 0.00 56 1015.0
20260905021028 76 336 1.0 4.0 0.00 0.00 0.00 53 1015.1
20260905020527 76 26 1.0 4.0 0.00 0.00 0.00 52 1015.0
20260905020046 76 88 1.0 4.0 0.00 0.00 0.00 52 1015.1
20260905015527 76 0 0.0 5.0 0.00 0.00 0.00 51 1015.0
20260905015027 76 0 1.0 7.0 0.00 0.00 0.00 51 1015.0
20260905014543 76 27 1.0 7.0 0.00 0.00 0.00 51 1015.1
20260905014027 76 0 2.0 7.0 0.00 0.00 0.00 51 1014.9
20260905013528 76 49 2.0 7.0 0.00 0.00 0.00 51 1014.9
20260905013056 76 53 2.0 8.0 0.00 0.00 0.00 51 1015.0
20260905012527 76 0 0.0 8.0 0.00 0.00 0.00 51 1014.9
20260905012026 77 57 2.0 8.0 0.00 0.00 0.00 51 1014.9
20260905011545 77 22 4.0 9.0 0.00 0.00 0.00 51 1014.9
20260905011027 77 41 1.0 9.0 0.00 0.00 0.00 51 1014.8
20260905010526 77 20 5.0 9.0 0.00 0.00 0.00 51 1014.9
20260905010049 77 321 4.0 9.0 0.00 0.00 0.00 50 1014.7
20260905005526 77 343 5.0 9.0 0.00 0.00 0.00 50 1014.8
20260905005025 77 360 2.0 9.0 0.00 0.00 0.00 49 1014.9
20260905004543 77 360 5.0 11.0 0.00 0.00 0.00 49 1014.9
20260905004025 78 360 5.0 13.0 0.00 0.00 0.00 48 1014.9
20260905003527 78 360 7.0 13.0 0.00 0.00 0.00 47 1014.9
20260905003049 78 360 6.0 12.0 0.00 0.00 0.00 47 1014.9
20260905002524 78 360 1.0 6.0 0.00 0.00 0.00 46 1015.0
20260905002027 78 360 2.0 10.0 0.00 0.00 0.00 46 1014.9
20260905001545 78 360 3.0 10.0 0.00 0.00 0.00 45 1014.8
20260905001026 78 360 3.0 6.0 0.00 0.00 0.00 45 1014.8
20260905000528 78 360 2.0 9.0 0.00 0.00 0.00 45 1015.0
20260905000045 78 360 2.0 9.0 0.00 0.00 0.00 45 1014.9
20260904235526 79 360 4.0 9.0 0.00 0.00 0.00 45 1014.9
20260904235025 78 360 2.0 5.0 0.00 0.00 0.00 45 1014.9
20260904234546 78 360 2.0 4.0 0.00 0.00 0.00 46 1014.9
20260904234030 78 360 1.0 4.0 0.00 0.00 0.00 45 1015.0
20260904233525 78 360 0.0 5.0 0.00 0.00 0.00 45 1014.9
20260904233042 78 360 1.0 5.0 0.00 0.00 0.00 44 1014.8
20260904232527 78 360 2.0 5.0 0.00 0.00 0.00 45 1015.1
20260904232025 78 360 3.0 5.0 0.00 0.00 0.00 45 1015.0
20260904231547 78 360 1.0 4.0 0.00 0.00 0.00 45 1014.9
20260904231026 78 360 2.0 4.0 0.00 0.00 0.00 44 1015.0
20260904230526 78 360 1.0 3.0 0.00 0.00 0.00 44 1015.0
20260904230046 78 360 1.0 3.0 0.00 0.00 0.00 45 1015.0
20260904225532 77 360 1.0 3.0 0.00 0.00 0.00 45 1015.0
20260904225026 77 360 1.0 2.0 0.00 0.00 0.00 46 1015.0
20260904224543 77 360 1.0 2.0 0.00 0.00 0.00 46 1015.1
20260904224025 77 0 0.0 3.0 0.00 0.00 0.00 46 1015.1
20260904223523 77 0 0.0 3.0 0.00 0.00 0.00 46 1015.2
20260904223043 76 360 0.0 3.0 0.00 0.00 0.00 47 1015.1
20260904222529 77 360 1.0 3.0 0.00 0.00 0.00 46 1015.1
20260904222027 77 0 0.0 3.0 0.00 0.00 0.00 46 1015.2
20260904221542 77 360 1.0 3.0 0.00 0.00 0.00 45 1015.3
20260904221025 77 360 1.0 2.0 0.00 0.00 0.00 46 1015.2
20260904220527 77 360 1.0 2.0 0.00 0.00 0.00 45 1015.2
20260904220108 78 0 0.0 3.0 0.00 0.00 0.00 45 1015.3
20260904215527 78 0 0.0 3.0 0.00 0.00 0.00 43 1015.3
20260904215027 78 0 0.0 3.0 0.00 0.00 0.00 43 1015.3
20260904214545 78 0 0.0 0.0 0.00 0.00 0.00 43 1015.3
20260904214025 78 0 0.0 2.0 0.00 0.00 0.00 43 1015.3
20260904213525 78 0 0.0 3.0 0.00 0.00 0.00 43 1015.4
20260904213052 78 0 0.0 3.0 0.00 0.00 0.00 43 1015.4
20260904212524 78 360 0.0 3.0 0.00 0.00 0.00 43 1015.4
20260904212028 78 360 0.0 4.0 0.00 0.00 0.00 43 1015.4
20260904211555 78 0 1.0 4.0 0.00 0.00 0.00 43 1015.3
20260904211029 78 360 0.0 4.0 0.00 0.00 0.00 43 1015.3
20260904210527 79 360 2.0 5.0 0.00 0.00 0.00 43 1015.3
20260904210048 79 360 2.0 5.0 0.00 0.00 0.00 43 1015.3
20260904205527 79 360 2.0 5.0 0.00 0.00 0.00 43 1015.3
20260904205027 79 360 2.0 5.0 0.00 0.00 0.00 43 1015.3
20260904204550 78 360 3.0 5.0 0.00 0.00 0.00 44 1015.3
20260904204027 78 360 2.0 5.0 0.00 0.00 0.00 44 1015.3
20260904203527 78 360 2.0 5.0 0.00 0.00 0.00 44 1015.5
20260904203052 78 360 2.0 4.0 0.00 0.00 0.00 45 1015.4
20260904202527 78 0 1.0 5.0 0.00 0.00 0.00 45 1015.5
20260904202027 79 360 2.0 5.0 0.00 0.00 0.00 45 1015.4
20260904201546 79 360 2.0 5.0 0.00 0.00 0.00 45 1015.5
20260904201027 79 360 2.0 6.0 0.00 0.00 0.00 45 1015.4
20260904200527 78 360 3.0 8.0 0.00 0.00 0.00 45 1015.4
20260904200045 78 360 2.0 8.0 0.00 0.00 0.00 45 1015.4
20260904195531 78 360 3.0 8.0 0.00 0.00 0.00 45 1015.4
20260904195027 78 360 3.0 8.0 0.00 0.00 0.00 46 1015.4
20260904194546 78 360 3.0 8.0 0.00 0.00 0.00 46 1015.4
20260904194028 78 360 3.0 6.0 0.00 0.00 0.00 46 1015.5
20260904193531 79 360 4.0 6.0 0.00 0.00 0.00 46 1015.5
20260904193047 79 360 3.0 6.0 0.00 0.00 0.00 47 1015.5
20260904192528 79 360 2.0 5.0 0.00 0.00 0.00 47 1015.4
20260904192026 79 360 2.0 6.0 0.00 0.00 0.00 47 1015.5
20260904191548 79 360 3.0 8.0 0.00 0.00 0.00 47 1015.5
20260904191028 79 360 4.0 8.0 0.00 0.00 0.00 47 1015.5
20260904190530 79 360 4.0 8.0 0.00 0.00 0.00 47 1015.5
20260904190047 79 360 3.0 8.0 0.00 0.00 0.00 47 1015.5
20260904185527 79 360 3.0 8.0 0.00 0.00 0.00 47 1015.4
20260904185027 79 360 4.0 8.0 0.00 0.00 0.00 47 1015.4
20260904184551 79 360 2.0 8.0 0.00 0.00 0.00 47 1015.4
20260904184027 79 360 4.0 8.0 0.00 0.00 0.00 47 1015.4
20260904183527 80 360 2.0 6.0 0.00 0.00 0.00 47 1015.3
20260904183053 80 360 3.0 8.0 0.00 0.00 0.00 48 1015.2
20260904182528 80 360 3.0 8.0 0.00 0.00 0.00 48 1015.1
20260904182029 80 360 3.0 10.0 0.00 0.00 0.00 48 1015.2
20260904181540 80 360 4.0 10.0 0.00 0.00 0.00 47 1015.1
20260904181027 80 360 4.0 8.0 0.00 0.00 0.00 47 1015.2
20260904180528 80 360 2.0 6.0 0.00 0.00 0.00 47 1015.1
20260904180055 80 360 3.0 6.0 0.00 0.00 0.00 47 1015.0
20260904175527 80 360 4.0 9.0 0.00 0.00 0.00 47 1015.0
20260904175027 80 360 3.0 9.0 0.00 0.00 0.00 47 1014.9
20260904174543 80 360 3.0 8.0 0.00 0.00 0.00 47 1014.7
20260904174027 80 360 4.0 10.0 0.00 0.00 0.00 47 1014.8
20260904173526 80 360 5.0 10.0 0.00 0.00 0.00 47 1014.7
20260904173047 81 360 5.0 10.0 0.00 0.00 0.00 46 1014.6
20260904172527 81 360 3.0 11.0 0.00 0.00 0.00 46 1014.5
20260904172028 81 360 4.0 13.0 0.00 0.00 0.00 46 1014.4
20260904171546 81 360 7.0 13.0 0.00 0.00 0.00 46 1014.4
20260904171027 81 360 5.0 13.0 0.00 0.00 0.00 46 1014.3
20260904170527 81 360 6.0 14.0 0.00 0.00 0.00 46 1014.2
20260904170048 82 360 7.0 14.0 0.00 0.00 0.00 46 1014.1
20260904165527 82 360 4.0 15.0 0.00 0.00 0.00 46 1014.0
20260904165027 82 360 9.0 17.0 0.00 0.00 0.00 46 1014.0
20260904164549 82 350 11.0 17.0 0.00 0.00 0.00 46 1013.9
20260904164026 82 360 10.0 17.0 0.00 0.00 0.00 45 1013.9
20260904163527 83 349 8.0 19.0 0.00 0.00 0.00 45 1013.8
20260904163045 83 350 11.0 19.0 0.00 0.00 0.00 45 1013.8
20260904162528 83 340 12.0 20.0 0.00 0.00 0.00 45 1013.8
20260904162023 83 325 13.0 20.0 0.00 0.00 0.00 45 1013.7
20260904161546 83 331 10.0 19.0 0.00 0.00 0.00 44 1013.7
20260904161026 83 313 11.0 19.0 0.00 0.00 0.00 44 1013.6
20260904160531 84 36 12.0 19.0 0.00 0.00 0.00 44 1013.6
20260904160043 84 355 9.0 16.0 0.00 0.00 0.00 44 1013.7
20260904155528 84 37 6.0 16.0 0.00 0.00 0.00 44 1013.7
20260904155027 84 46 7.0 16.0 0.00 0.00 0.00 43 1013.7
20260904154550 84 336 9.0 18.0 0.00 0.00 0.00 43 1013.6
20260904154027 84 34 11.0 18.0 0.00 0.00 0.00 43 1013.7
20260904153530 84 15 9.0 16.0 0.00 0.00 0.00 43 1013.6
20260904153051 84 44 9.0 15.0 0.00 0.00 0.00 43 1013.6
20260904152526 84 41 9.0 14.0 0.00 0.00 0.00 42 1013.5
20260904152027 85 55 5.0 14.0 0.00 0.00 0.00 42 1013.5
20260904151542 85 9 7.0 14.0 0.00 0.00 0.00 42 1013.5
20260904151028 85 355 6.0 15.0 0.00 0.00 0.00 42 1013.5
20260904150527 85 33 8.0 19.0 0.00 0.00 0.00 42 1013.5
20260904150046 85 347 4.0 19.0 0.00 0.00 0.00 42 1013.6
20260904145527 85 5 12.0 19.0 0.00 0.00 0.00 41 1013.6
20260904145026 85 19 8.0 17.0 0.00 0.00 0.00 42 1013.6
20260904144558 85 338 10.0 18.0 0.00 0.00 0.00 41 1013.6
20260904144027 85 360 8.0 18.0 0.00 0.00 0.00 42 1013.6
20260904143526 85 31 10.0 17.0 0.00 0.00 0.00 42 1013.6
20260904143040 85 12 10.0 18.0 0.00 0.00 0.00 42 1013.5
20260904142528 85 5 8.0 18.0 0.00 0.00 0.00 42 1013.4
20260904142028 86 21 8.0 18.0 0.00 0.00 0.00 42 1013.4
20260904141542 86 326 11.0 18.0 0.00 0.00 0.00 41 1013.4
20260904141027 86 360 9.0 20.0 0.00 0.00 0.00 41 1013.4
20260904140527 86 15 8.0 20.0 0.00 0.00 0.00 42 1013.4
20260904140055 86 355 6.0 22.0 0.00 0.00 0.00 42 1013.5
20260904135527 85 5 12.0 22.0 0.00 0.00 0.00 42 1013.4
20260904135027 85 60 11.0 18.0 0.00 0.00 0.00 42 1013.4
20260904134549 86 30 9.0 18.0 0.00 0.00 0.00 41 1013.4
20260904134026 85 22 10.0 18.0 0.00 0.00 0.00 42 1013.5
20260904133526 86 38 11.0 18.0 0.00 0.00 0.00 42 1013.5
20260904133046 86 40 5.0 18.0 0.00 0.00 0.00 41 1013.5
20260904132527 85 19 11.0 18.0 0.00 0.00 0.00 42 1013.4
20260904132031 86 360 10.0 18.0 0.00 0.00 0.00 41 1013.5
20260904131540 86 355 9.0 18.0 0.00 0.00 0.00 41 1013.4
20260904131027 86 338 8.0 18.0 0.00 0.00 0.00 41 1013.6
20260904130527 86 52 10.0 18.0 0.00 0.00 0.00 42 1013.6
20260904130049 86 21 10.0 20.0 0.00 0.00 0.00 42 1013.6
20260904125527 86 336 10.0 24.0 0.00 0.00 0.00 42 1013.6
20260904125027 86 14 13.0 24.0 0.00 0.00 0.00 41 1013.5
20260904124540 86 352 14.0 20.0 0.00 0.00 0.00 41 1013.5
20260904124027 86 5 9.0 21.0 0.00 0.00 0.00 42 1013.5
20260904123529 86 355 10.0 22.0 0.00 0.00 0.00 42 1013.7
20260904123043 86 5 14.0 22.0 0.00 0.00 0.00 41 1013.7
20260904122528 86 69 14.0 22.0 0.00 0.00 0.00 42 1013.8
20260904122026 86 320 10.0 20.0 0.00 0.00 0.00 42 1013.8
20260904121542 86 15 10.0 19.0 0.00 0.00 0.00 41 1013.8
20260904121026 86 53 8.0 23.0 0.00 0.00 0.00 41 1013.7
20260904120527 86 346 12.0 23.0 0.00 0.00 0.00 40 1013.8
20260904120053 86 343 11.0 23.0 0.00 0.00 0.00 40 1013.8
20260904115527 86 355 12.0 23.0 0.00 0.00 0.00 41 1013.9
20260904115029 86 9 13.0 22.0 0.00 0.00 0.00 40 1013.9
20260904114545 86 342 12.0 22.0 0.00 0.00 0.00 39 1013.9
20260904114029 86 300 9.0 21.0 0.00 0.00 0.00 39 1014.0
20260904113531 86 360 10.0 21.0 0.00 0.00 0.00 40 1013.9
20260904113047 86 317 12.0 21.0 0.00 0.00 0.00 41 1013.8
20260904112526 85 5 9.0 21.0 0.00 0.00 0.00 42 1013.9
20260904112027 86 348 11.0 18.0 0.00 0.00 0.00 41 1014.1
20260904111542 86 331 8.0 19.0 0.00 0.00 0.00 42 1014.0
20260904111026 85 321 10.0 22.0 0.00 0.00 0.00 42 1014.0
20260904110526 85 337 12.0 22.0 0.00 0.00 0.00 42 1014.1
20260904110047 85 355 14.0 20.0 0.00 0.00 0.00 42 1013.9
20260904105530 85 336 9.0 20.0 0.00 0.00 0.00 42 1014.0
20260904105027 85 329 8.0 20.0 0.00 0.00 0.00 43 1014.0
20260904104545 85 306 10.0 20.0 0.00 0.00 0.00 42 1014.0
20260904104029 85 348 13.0 20.0 0.00 0.00 0.00 43 1013.9
20260904103526 85 10 9.0 21.0 0.00 0.00 0.00 44 1014.0
20260904103042 85 360 13.0 23.0 0.00 0.00 0.00 46 1013.9
20260904102526 85 332 14.0 23.0 0.00 0.00 0.00 46 1013.9
20260904102027 85 337 8.0 22.0 0.00 0.00 0.00 45 1013.9
20260904101558 85 347 10.0 22.0 0.00 0.00 0.00 45 1014.1
20260904101026 85 334 12.0 23.0 0.00 0.00 0.00 45 1014.2
20260904100527 85 333 13.0 23.0 0.00 0.00 0.00 46 1014.1
20260904100042 85 334 12.0 23.0 0.00 0.00 0.00 46 1014.1
20260904095527 85 326 14.0 23.0 0.00 0.00 0.00 46 1014.1
20260904095026 85 360 11.0 22.0 0.00 0.00 0.00 46 1014.1
20260904094547 85 12 11.0 22.0 0.00 0.00 0.00 44 1014.1
20260904094026 85 360 11.0 19.0 0.00 0.00 0.00 45 1014.1
20260904093526 85 355 8.0 21.0 0.00 0.00 0.00 44 1013.9
20260904093046 85 51 11.0 24.0 0.00 0.00 0.00 44 1014.1
20260904092526 85 360 13.0 24.0 0.00 0.00 0.00 45 1014.1
20260904092026 85 360 10.0 22.0 0.00 0.00 0.00 46 1014.1